Location: Москва
(55.7518°N, 37.5952°E)
Time: 05:53:41
(UTC+03:00)

ISS - Pass Details

Date: 29 January 2021
Orbit: 417 x 422 km, 51.6° (Epoch: 18 May)

Event Time Altitude Azimuth Distance (km) Brightness Sun altitude
Rises 18:13:09 0° 257° (WSW) 2,372 2.4 -10.5°
Reaches altitude 10° 18:15:19 10° 250° (WSW) 1,508 0.7 -10.8°
Maximum altitude 18:18:32 41° 178° (S) 625 -2.8 -11.3°
Enters shadow 18:21:10 14° 111° (ESE) 1,290 -1.8 -11.6°
